Date String (YYYY-MM-DD hh:mm:ss) UTC,Instrument flags,absolute air pressure of the measurement (hPa),sample flow rate (lpm),inlet stack bypass flow (lpm),air temperature of the measurement (°C),ambient temperature measured by the external sensor (°C),aerosol sample conditioner tube jacket temperature (°C),OPC LED temperature (°C),internal box temperature (°C),relative humidity of the measurement (%),span deviation,mass concentration of particles derived from Lorenz-Mie calculation of OPC scattering (μg/m³),mass concentration of particles derived from Lorenz-Mie calculation of OPC scattering (μg/m³),mass concentration of particles derived from Lorenz-Mie calculation of OPC scattering (μg/m³)
DateTimeUTC,F1_M11,P_M11,Q1_M11,Q2_M11,T1_M11,T2_M11,T3_M11,T4_M11,T5_M11,U1_M11,ZSPAN_M11,X0_M11,X2_M11,X1_M11
2023-10-20 18:00:00,SystemResetWarning,0831.9,5.00,000.00,028.4,027.1,000.0,036.7,030.2,13.6,0000.0,0010.69,0002.08,0000.78
2023-10-20 18:01:00,SystemResetWarning,0831.8,4.99,000.00,028.4,026.7,000.0,036.7,030.2,13.7,0000.0,0010.51,0002.13,0000.78
2023-10-20 18:02:00,SystemResetWarning,0832.0,5.00,000.00,028.4,025.0,000.0,036.6,030.0,13.8,0000.0,0010.52,0002.18,0000.79
2023-10-20 18:03:00,SystemResetWarning,0831.9,5.01,000.00,028.3,024.5,000.0,036.6,029.9,13.9,0000.0,0011.98,0002.25,0000.79
2023-10-20 18:04:00,SystemResetWarning,0832.1,5.01,000.00,028.2,024.8,000.0,036.6,029.8,14.0,0000.0,0012.06,0002.36,0000.81
2023-10-20 18:05:00,SystemResetWarning,0832.2,5.00,000.00,028.2,025.2,000.0,036.6,029.8,14.1,0000.0,0012.92,0002.39,0000.81
2023-10-20 18:06:00,SystemResetWarning,0832.1,5.00,000.00,028.2,025.6,000.0,036.6,029.8,13.5,0000.0,0013.87,0002.43,0000.82
2023-10-20 18:07:00,SystemResetWarning,0832.1,5.00,000.00,028.2,026.0,000.0,036.6,029.9,13.3,0000.0,0014.17,0002.47,0000.83
2023-10-20 18:08:00,SystemResetWarning,0832.3,5.00,000.00,028.2,026.4,000.0,036.6,030.0,13.2,0000.0,0014.03,0002.58,0000.84
2023-10-20 18:09:00,SystemResetWarning,0832.2,5.00,000.00,028.3,026.7,000.0,036.7,030.0,13.0,0000.0,0013.89,0002.62,0000.86
2023-10-20 18:10:00,SystemResetWarning,0831.8,5.00,000.00,028.3,027.0,000.0,036.7,030.1,13.0,0000.0,0013.41,0002.69,0000.87
2023-10-20 18:11:00,SystemResetWarning,0831.9,5.00,000.00,028.4,027.2,000.0,036.7,030.2,13.1,0000.0,0012.70,0002.77,0000.88
2023-10-20 18:12:00,SystemResetWarning,0832.1,4.98,000.00,028.4,026.3,000.0,036.7,030.2,13.0,0000.0,0013.63,0002.84,0000.89
2023-10-20 18:13:00,SystemResetWarning,0831.7,5.01,000.00,028.3,024.8,000.0,036.6,030.0,12.9,0000.0,0014.23,0002.84,0000.91
2023-10-20 18:14:00,SystemResetWarning,0831.6,5.01,000.00,028.3,024.7,000.0,036.6,029.9,13.0,0000.0,0013.58,0002.81,0000.92
2023-10-20 18:15:00,SystemResetWarning,0831.7,5.00,000.00,028.2,025.1,000.0,036.6,029.8,13.1,0000.0,0013.76,0002.91,0000.94
2023-10-20 18:16:00,SystemResetWarning,0831.7,5.00,000.00,028.2,025.4,000.0,036.6,029.8,13.2,0000.0,0014.00,0002.97,0000.96
2023-10-20 18:17:00,SystemResetWarning,0831.7,5.01,000.00,028.2,025.8,000.0,036.6,029.8,12.9,0000.0,0014.40,0003.04,0001.00
2023-10-20 18:18:00,SystemResetWarning,0831.6,4.99,000.00,028.2,026.2,000.0,036.6,029.9,13.0,0000.0,0015.71,0003.11,0001.04
2023-10-20 18:19:00,SystemResetWarning,0831.6,5.00,000.00,028.2,026.6,000.0,036.6,030.0,13.1,0000.0,0016.53,0003.13,0001.07
2023-10-20 18:20:00,SystemResetWarning,0831.6,5.00,000.00,028.3,026.8,000.0,036.6,030.1,13.0,0000.0,0017.82,0003.20,0001.11
2023-10-20 18:21:00,SystemResetWarning,0831.6,5.00,000.00,028.3,027.1,000.0,036.7,030.2,13.0,0000.0,0018.77,0003.23,0001.14
2023-10-20 18:22:00,SystemResetWarning,0831.6,4.98,000.00,028.3,026.4,000.0,036.7,030.2,13.1,0000.0,0019.05,0003.29,0001.16
2023-10-20 18:23:00,SystemResetWarning,0831.6,5.01,000.00,028.3,024.8,000.0,036.6,030.0,13.0,0000.0,0019.53,0003.29,0001.19
2023-10-20 18:24:00,SystemResetWarning,0831.6,5.01,000.00,028.2,024.6,000.0,036.5,029.9,12.9,0000.0,0019.70,0003.33,0001.21
2023-10-20 18:25:00,SystemResetWarning,0831.5,5.00,000.00,028.2,025.0,000.0,036.5,029.8,12.9,0000.0,0020.05,0003.39,0001.23
2023-10-20 18:26:00,SystemResetWarning,0831.5,5.00,000.00,028.1,025.3,000.0,036.6,029.8,12.9,0000.0,0020.50,0003.41,0001.27
2023-10-20 18:27:00,SystemResetWarning,0831.5,4.99,000.00,028.1,025.8,000.0,036.6,029.8,13.1,0000.0,0020.75,0003.46,0001.31
2023-10-20 18:28:00,SystemResetWarning,0831.4,5.00,000.00,028.2,026.1,000.0,036.6,029.9,13.1,0000.0,0019.64,0003.51,0001.32
2023-10-20 18:29:00,SystemResetWarning,0831.4,5.00,000.00,028.2,026.5,000.0,036.6,030.0,13.2,0000.0,0018.76,0003.54,0001.34
2023-10-20 18:30:00,SystemResetWarning,0831.5,5.01,000.00,028.2,026.8,000.0,036.6,030.1,13.3,0000.0,0018.23,0003.54,0001.36
2023-10-20 18:31:00,SystemResetWarning,0831.5,4.97,000.00,028.3,027.0,000.0,036.7,030.1,13.0,0000.0,0019.04,0003.54,0001.37
2023-10-20 18:32:00,SystemResetWarning,0831.5,5.00,000.00,028.3,026.5,000.0,036.6,030.2,13.1,0000.0,0018.43,0003.52,0001.37
2023-10-20 18:33:00,SystemResetWarning,0831.4,5.00,000.00,028.3,024.9,000.0,036.6,030.0,13.5,0000.0,0017.97,0003.47,0001.40
2023-10-20 18:34:00,SystemResetWarning,0831.5,5.00,000.00,028.2,024.5,000.0,036.5,029.9,13.6,0000.0,0018.23,0003.45,0001.40
2023-10-20 18:35:00,SystemResetWarning,0831.4,5.01,000.00,028.2,024.8,000.0,036.5,029.8,13.8,0000.0,0017.58,0003.49,0001.41
2023-10-20 18:36:00,SystemResetWarning,0831.4,5.00,000.00,028.1,025.2,000.0,036.5,029.7,13.6,0000.0,0017.06,0003.47,0001.41
2023-10-20 18:37:00,SystemResetWarning,0831.4,5.00,000.00,028.1,025.6,000.0,036.5,029.8,13.5,0000.0,0018.64,0003.49,0001.40
2023-10-20 18:38:00,SystemResetWarning,0831.4,5.00,000.00,028.1,026.0,000.0,036.6,029.9,13.5,0000.0,0018.97,0003.46,0001.39
2023-10-20 18:39:00,SystemResetWarning,0831.4,5.00,000.00,028.2,026.4,000.0,036.6,029.9,13.6,0000.0,0020.55,0003.46,0001.40
2023-10-20 18:40:00,SystemResetWarning,0831.4,5.00,000.00,028.2,026.7,000.0,036.6,030.0,13.6,0000.0,0021.66,0003.48,0001.39
2023-10-20 18:41:00,SystemResetWarning,0831.4,5.00,000.00,028.3,027.0,000.0,036.6,030.1,13.7,0000.0,0023.04,0003.54,0001.38
2023-10-20 18:42:00,SystemResetWarning,0831.4,4.99,000.00,028.3,026.7,000.0,036.6,030.2,13.6,0000.0,0023.45,0003.58,0001.38
2023-10-20 18:43:00,SystemResetWarning,0831.3,4.99,000.00,028.3,025.1,000.0,036.5,030.0,13.4,0000.0,0022.77,0003.60,0001.38
2023-10-20 18:44:00,SystemResetWarning,0831.3,5.02,000.00,028.2,024.4,000.0,036.5,029.8,13.5,0000.0,0023.57,0003.59,0001.38
2023-10-20 18:45:00,SystemResetWarning,0831.3,5.01,000.00,028.2,024.7,000.0,036.5,029.7,13.3,0000.0,0024.50,0003.60,0001.37
2023-10-20 18:46:00,SystemResetWarning,0831.3,5.00,000.00,028.1,025.1,000.0,036.5,029.7,13.5,0000.0,0024.55,0003.59,0001.37
2023-10-20 18:47:00,SystemResetWarning,0831.3,4.99,000.00,028.1,025.5,000.0,036.5,029.7,13.5,0000.0,0025.72,0003.69,0001.41
2023-10-20 18:48:00,SystemResetWarning,0831.3,5.00,000.00,028.1,026.0,000.0,036.5,029.8,13.4,0000.0,0025.06,0003.85,0001.45
2023-10-20 18:49:00,SystemResetWarning,0831.3,5.01,000.00,028.1,026.3,000.0,036.5,029.9,13.4,0000.0,0025.08,0003.93,0001.47
2023-10-20 18:50:00,SystemResetWarning,0831.3,5.01,000.00,028.2,026.6,000.0,036.6,030.0,13.5,0000.0,0026.43,0004.02,0001.47
2023-10-20 18:51:00,SystemResetWarning,0831.3,5.00,000.00,028.2,026.9,000.0,036.6,030.0,13.6,0000.0,0026.52,0004.01,0001.49
2023-10-20 18:52:00,SystemResetWarning,0831.3,5.00,000.00,028.3,027.1,000.0,036.6,030.1,13.5,0000.0,0025.51,0003.98,0001.49
2023-10-20 18:53:00,SystemResetWarning,0831.3,4.98,000.00,028.3,026.3,000.0,036.6,030.1,13.6,0000.0,0025.91,0003.97,0001.50
2023-10-20 18:54:00,SystemResetWarning,0831.3,5.00,000.00,028.2,024.7,000.0,036.5,029.9,13.6,0000.0,0025.45,0003.97,0001.51
2023-10-20 18:55:00,SystemResetWarning,0831.3,5.01,000.00,028.2,024.6,000.0,036.5,029.8,13.5,0000.0,0025.90,0004.01,0001.52
2023-10-20 18:56:00,SystemResetWarning,0831.3,5.00,000.00,028.1,024.9,000.0,036.5,029.7,13.5,0000.0,0025.95,0004.06,0001.54
2023-10-20 18:57:00,SystemResetWarning,0831.2,5.00,000.00,028.1,025.3,000.0,036.5,029.7,13.6,0000.0,0025.02,0004.07,0001.54
2023-10-20 18:58:00,SystemResetWarning,0831.2,5.00,000.00,028.1,025.7,000.0,036.5,029.8,13.3,0000.0,0025.18,0003.96,0001.51
2023-10-20 18:59:00,SystemResetWarning,0831.2,5.00,000.00,028.1,026.1,000.0,036.5,029.9,13.4,0000.0,0025.05,0003.78,0001.46
